DECAYED

STARLINK-1848, 46740 (Decayed)

Orbit data source: Space-Track

STARLINK-1848, 46740 was a payload satellite owned by SpaceX/Seattle (US) in LEO that was launched on Sat, 24 Oct 2020 UTC via an FALCON 9 launch vehicle from the Air Force Eastern Test Range (AFETR). Payload-class satellites include a variety of spacecraft equipped with specific instruments for various scientific and technological missions. These include communications satellites like Starlink; space stations such as the ISS; scientific satellites like the Hubble; Earth observation satellites from companies like Planet Labs, Umbra, and HawkEye 360; GPS; miniature CubeSats for education and research; and military/defense satellites.

Not visible in the next 10 days
Identifier
46740, 2020-074B
Orbit
Decayed
Country
Flag of USUS
Related business
Manufacturer
SpaceX/Seattle
Mission
Decayed Commercial Communications
Bus & Motor
STARLINK, Unknown motor
Mass
260 kg wet, ~248 kg dry
Launch date (UTC)
2020-10-24 (6 years ago)
Launch vehicle
FALCON 9
Launch site
Air Force Eastern Test Range (AFETR)
Object type
Payload
Rocket body
Debris
Shape & HBR
Box + 1 Pan, 10.1 m
Radar Cross Section
13.562 m², Large (>1 m²)

Expand to show TLE details & history
Last TLE update: 7 months ago

TLE from 7 months ago
0 STARLINK-1848
1 46740U 20074B   26063.10621353  .10028560  12371-4  62757-3 0  9992
2 46740  53.0202 279.1593 0006491 257.3061 102.7260 16.41157069296774
Epoch: 2026-03-04T02:32Z
TLE epoch observation values (Epoch: 2026-03-04T02:32:56.848Z)
Latitude
-0.00007°
Longitude
79.0467°
Altitude
164.591 km
Speed
7.808 km/s
True Right ascension
18h 36m 38s
True Declination
0° 00' 00"
Sunlit
Object was in daylight at epoch
Visualization orbit readout
Latitude
Unknown
Longitude
Unknown
Altitude
Unknown
Speed
Unknown
Apparent Right ascension
Unknown
Apparent Declination
Unknown
Sunlit
N/A
Visualization observer readout
Local Sidereal Time
10:17:48
Azimuth
Unknown
Elevation
Unknown
Doppler factor
Unknown
Orbital elements
Apogee altitude
167.264 km
Perigee altitude
158.772 km
Semi-major axis
6,541.155 km
Eccentricity
0.00065
Inclination
53.0202°
RAAN
279.1593°
Arg. of periapsis
257.3061°
True anomaly
102.79854°
Mean anomaly
102.726°
Eccentric anomaly
102.76227°
Mean motion
4.10262 °/min
Orbital period
87.75 mins
BSTAR
0.00062757
Loading maneuver chart data...
Computing Atmospheric mass density...

Documentation

Showing up to 5 results
|